Annecy-Haute-Savoie-Mont Blanc Airport

Jump to: basic info | weather | frequencies | runways | comments

Related pages: nearby airports | nearby navaids | notams | map

Basic information (top)

Codes: NCY LFLP
Location: lon 45.929199, lat 6.098760, elev 1,521 ft / 464 m msl
Status: medium_airport
Scheduled airline service: yes
Links: Wikipedia Mobile

Weather (top)

Current conditions (rec'd 2014/07/22 09:00Z):

LFLP 220900Z AUTO 21005KT 9999 FEW012 OVC049 17/15 Q1016

Airport forecast (rec'd 2014/07/22 06:00Z):

TAF LFLP 220500Z 2206/2306 VRB02KT 9999 BKN015 OVC050 
      TEMPO 2206/2217 4000 -RA BR BKN010

Frequencies (top)

Verify before use: may be inaccurate or out of date.

AFIS: 118.2 MHz (INFO)
APP: 123.7 MHz (CHAMBERY APP)
TWR: 118.2 MHz (ANNECY TWR)

Runways (top)

04/22: 5,348 x 98 ft (1,630 x 30 m) — paved — lighted — threshold 04 displaced 820 ft (250 m) — threshold 22 displaced 755 ft (230 m)

Latest comments (top)

No comments yet for Annecy-Haute-Savoie-Mont Blanc Airport

More... (top)

See also NOTAMs and nearby airports and navaids, or visit the Annecy-Haute-Savoie-Mont Blanc Airport page at the main OurAirports website..